"Pseudo-MPEC" for P222FIi

Created 2024 Nov 30 20:31:17 UT using Find_Orb

Click here for an explanation of pseudo-MPECs

 
 Astrometry: 
     P222FIi* C2024 11 29.26631002 16 42.323+09 34 33.78   ~BT9V 21.93wXNEOCPF52
     P222FIi  C2024 11 29.27850902 16 42.274+09 35 32.00   ~BT9V 21.74wXNEOCPF52
     P222FIi  C2024 11 29.29071902 16 42.206+09 36 30.07   ~BT9V 21.88wXNEOCPF52
     P222FIi  C2024 11 29.30291702 16 42.118+09 37 28.39   ~BT9V 22.14wXNEOCPF52
     P222FIi  C2024 11 29.41132002 16 41.418+09 46 03.67   ~BTL2 20.96GVNEOCPF52
     P222FIi  C2024 11 29.41195002 16 41.424+09 46 06.54   ~BTL2 20.71GVNEOCPF52

Station data:
(F52) Pan-STARRS 2, Haleakala  (N20.707382 W156.255910)  US/Hawaii.
   Observers J. Bulger, T. Dukes, T. Lowe, A. Schultz, M. Willman. Measurers
   K. Chambers, S. Chastel, T. de Boer, L. Denneau, J. Fairlamb, H.
   Flewelling, M. Huber, C.-C. Lin, E. Magnier, Y. Ramanjooloo, R. Wainscoat,
   R. Weryk. 1.8-m Ritchey-Chrétien + CCD.

Orbital elements:  P222FIi
   Perihelion 2024 Sep 28.46615 +/- 36 TT = 11:11:15 (JD 2460581.96615)
Epoch 2024 Nov 29.0 TT = JDT 2460643.5   Earth MOID: 0.1648   Ma: 0.0940
M  29.38418466 +/- 17               (J2000 ecliptic)             AutoNEOCP
n   0.47752876 +/- 0.224            Peri.  296.55748 +/- 38
a   1.62107467 +/- 0.506            Node    63.61743 +/- 2.2
e   0.3599316 +/- 0.182             Incl.   16.83232 +/- 5.9
P   2.064/753.867d         H 23.05  G  0.15   U 11.7  SR
q 1.03759859 +/- 0.117    Q 2.20455075 +/- 2.36
From 6 observations 2024 Nov. 29 (3.5 hr); mean residual 0".16
Residuals in arcseconds: 
241129 F52  .25-  .26+    241129 F52  .18+  .24-    241129 F52  .09-  .09+    
241129 F52  .07+  .08+    241129 F52  .05+  .19-    241129 F52  .04+  .01-    

Ephemerides (geocentric):
Date (UTC) HH   RA             Dec           delta  r     elong  mag " sig PA
---- --------  ------------   ------------  ------ ------ -----  --- --------
2024 11 30 21  02 16 57.471   +11 38 10.13  .25400 1.2072 147.0 21.7  464 133
2024 11 30 22  02 16 58.006   +11 41 15.00  .25427 1.2074 147.0 21.7  484 134
2024 11 30 23  02 16 58.546   +11 44 19.53  .25454 1.2075 147.0 21.7  504 135
2024 12 01 00  02 16 59.092   +11 47 23.71  .25481 1.2077 147.0 21.7  525 136
2024 12 01 01  02 16 59.643   +11 50 27.54  .25508 1.2079 146.9 21.7  547 137
2024 12 01 02  02 17 00.201   +11 53 31.03  .25534 1.2081 146.9 21.7  569 137
2024 12 01 03  02 17 00.764   +11 56 34.17  .25561 1.2083 146.9 21.7  592 138
2024 12 01 04  02 17 01.334   +11 59 36.96  .25588 1.2085 146.9 21.7  615 139
2024 12 01 05  02 17 01.909   +12 02 39.41  .25615 1.2087 146.9 21.7  639 139
2024 12 01 06  02 17 02.490   +12 05 41.52  .25642 1.2089 146.8 21.7  664 140
2024 12 01 07  02 17 03.076   +12 08 43.28  .25669 1.2091 146.8 21.7  689 141
2024 12 01 08  02 17 03.669   +12 11 44.70  .25696 1.2093 146.8 21.7  714 141
2024 12 01 09  02 17 04.267   +12 14 45.78  .25723 1.2095 146.8 21.7  740 142
2024 12 01 10  02 17 04.871   +12 17 46.51  .25751 1.2097 146.7 21.7  767 142
2024 12 01 11  02 17 05.481   +12 20 46.90  .25778 1.2098 146.7 21.7  795 143
2024 12 01 12  02 17 06.096   +12 23 46.95  .25805 1.2100 146.7 21.7  823 143
2024 12 01 13  02 17 06.718   +12 26 46.66  .25832 1.2102 146.7 21.7  851 144
2024 12 01 14  02 17 07.345   +12 29 46.03  .25859 1.2104 146.7 21.7  881 144
2024 12 01 15  02 17 07.978   +12 32 45.07  .25887 1.2106 146.6 21.7  911 145
2024 12 01 16  02 17 08.617   +12 35 43.76  .25914 1.2108 146.6 21.7  941 145
2024 12 01 17  02 17 09.261   +12 38 42.11  .25941 1.2110 146.6 21.7  972 146
2024 12 01 18  02 17 09.911   +12 41 40.13  .25969 1.2112 146.6 21.7 1004 146
2024 12 01 19  02 17 10.567   +12 44 37.81  .25996 1.2114 146.5 21.7 1036 147
2024 12 01 20  02 17 11.229   +12 47 35.15  .26024 1.2116 146.5 21.7 1069 147
2024 12 01 21  02 17 11.897   +12 50 32.16  .26051 1.2118 146.5 21.7 1103 148
2024 12 01 22  02 17 12.570   +12 53 28.83  .26079 1.2120 146.5 21.7 1137 148
2024 12 01 23  02 17 13.249   +12 56 25.16  .26106 1.2122 146.5 21.8 1173 148
2024 12 02 00  02 17 13.934   +12 59 21.16  .26134 1.2124 146.4 21.8 1208 149
2024 12 02 01  02 17 14.624   +13 02 16.83  .26161 1.2126 146.4 21.8 1245 149
2024 12 02 02  02 17 15.321   +13 05 12.16  .26189 1.2127 146.4 21.8 1282 150
2024 12 02 03  02 17 16.023   +13 08 07.16  .26217 1.2129 146.4 21.8 1319 150
2024 12 02 04  02 17 16.731   +13 11 01.83  .26244 1.2131 146.3 21.8 1358 150
2024 12 02 05  02 17 17.444   +13 13 56.17  .26272 1.2133 146.3 21.8 1397 151
2024 12 02 06  02 17 18.163   +13 16 50.18  .26300 1.2135 146.3 21.8 1437 151
2024 12 02 07  02 17 18.888   +13 19 43.85  .26328 1.2137 146.3 21.8 1477 151
2024 12 02 08  02 17 19.619   +13 22 37.20  .26355 1.2139 146.3 21.8 1518 151
2024 12 02 09  02 17 20.355   +13 25 30.21  .26383 1.2141 146.2 21.8 1560 152
2024 12 02 10  02 17 21.098   +13 28 22.90  .26411 1.2143 146.2 21.8 1603 152
2024 12 02 11  02 17 21.845   +13 31 15.26  .26439 1.2145 146.2 21.8 1646 152
2024 12 02 12  02 17 22.599   +13 34 07.29  .26467 1.2147 146.2 21.8 1691 153
2024 12 02 13  02 17 23.358   +13 36 58.99  .26495 1.2149 146.1 21.8 1735 153
2024 12 02 14  02 17 24.123   +13 39 50.36  .26523 1.2151 146.1 21.8 1781 153
2024 12 02 15  02 17 24.894   +13 42 41.41  .26551 1.2153 146.1 21.8 1827 153
2024 12 02 16  02 17 25.670   +13 45 32.14  .26579 1.2155 146.1 21.8 1874 154
2024 12 02 17  02 17 26.452   +13 48 22.54  .26607 1.2157 146.0 21.8 1922 154
2024 12 02 18  02 17 27.240   +13 51 12.61  .26636 1.2158 146.0 21.8 1971 154
2024 12 02 19  02 17 28.034   +13 54 02.36  .26664 1.2160 146.0 21.8 2020 154
2024 12 02 20  02 17 28.833   +13 56 51.79  .26692 1.2162 146.0 21.8 2070 154